FORMOSAT-3 FM6 (29047 NORAD) Tracking and Keplerian Element Data

This shows tracking and keplerian element data for the satellite.

Feedback or suggestion? Click here.




ElementValue
Catalog29047
NameFORMOSAT-3 FM6
Epoch Orbit64127
Epoch Day198.94760696
Epoch Year2018
RAAN99.6168
Inclination71.9796
Eccentricity0.0050682
Argument of Perigee191.4996
Mean Anonmoly168.4987
Mean Motion14.28645577
Decay Rate7.3E-07
L11 29047U 06011A 18198.94760696 .00000073 00000-0 44760-4 0 9999
L22 29047 71.9796 99.6168 0050682 191.4996 168.4987 14.28645577641274

Live tracking and technical data element details for FORMOSAT-3 FM6 (NORAD 29047). FORMOSAT-3 FM6 can be tracked NOW for your location showing map with azimuth and elevation plus other details from your city location.

Track the satellite on the map from your city or location and see movement details for azimuth, elevation, latitude, longitude, range, height, and movement on the map or in text.







IsCatalogInMostPopularTable: catalog: 29047, numindb: 34
Update: records affected: 1



GetName: 29047 FORMOSAT-3 FM6

Hit Count: updated at: Thu, 19 Jul 2018 04:01:54 GMT